User: anonymous   Login
Location: Hancock Field Station
(44.9202°N, 120.4259°W)
Time: 11:40:32
(UTC-07:00)
Language:

Nadezhda 4 Rocket - Orbit

View from above orbital plane
View from above orbital plane
View from above satellite
View from above satellite

Ground track
Ground track

The orbit data is extracted from the following two-line orbital elements,

1 23180U 94041B   17231.19961351 -.00000058 +00000-0 -73110-4 0  9992
2 23180 082.9430 244.1303 0029962 049.9584 357.7734 13.77946085161325
Epoch (UTC): 19 August 2017 04:47:26
Eccentricity: 0.0029962
inclination: 82.9430°
perigee height: 949 km
apogee height: 993 km
right ascension of ascending node: 244.1303°
argument of perigee: 49.9584°
revolutions per day: 13.77946085
mean anomaly at epoch: 357.7734°
orbit number at epoch: 16132

The dashed part of the orbit path shows where the satellite is in the earth's shadow,  

DLR